Weather History for Cecil Field, FL

Change the Weather History Date:

Saturday, November 19, 2011

  Actual Average (KJAX) Record (KJAX)
Temperature  
Mean Temperature 62 °F 61 °F  
Max Temperature 73 °F 73 °F 84 °F (1948)
Min Temperature 50 °F 50 °F 28 °F (2008)
Degree Days  
Heating Degree Days 4 5  
Month to date heating degree days 73  
Since 1 July heating degree days 101  
Cooling Degree Days 0 2  
Month to date cooling degree days 46  
Year to date cooling degree days 2629  
Growing Degree Days 12 (Base 50)    
Moisture  
Dew Point 56 °F    
Average Humidity 95    
Maximum Humidity 100    
Minimum Humidity 69    
Precipitation  
Precipitation 0.77 in 0.07 in 1.21 in (1939)
Month to date precipitation 1.37  
Year to date precipitation 48.85  
Snow  
Snow 0.00 in 0.00 in 0.00 in (2001)
Month to date snowfall 0.0  
Since 1 July snowfall 0.0  
Since 1 September snowfall 0.0  
Snow Depth -    
Sea Level Pressure  
Sea Level Pressure 30.27 in    
Wind  
Wind Speed 1 mph (North)    
Max Wind Speed 8 mph    
Max Gust Speed -    
Visibility 7 miles    
Events      
T = Trace of Precipitation, MM = Missing Value Source: NWS Daily Summary

Daily Weather History Graph

Daily Weather History Graph

Search for Another Location

Airport:

Trip Planner

Search our weather history database for the weather conditions in past years. The results will help you decide how hot, cold, wet, or windy it might be!

Date:

Astronomy

Nov. 19, 2011 Rise Set
Actual Time 6:56 AM EST 5:29 PM EST
Civil Twilight 6:30 AM EST 5:54 PM EST
Nautical Twilight 6:01 AM EST 6:24 PM EST
Astronomical Twilight 5:32 AM EST 6:52 PM EST
Moon 12:41 AM EST (11/19) 1:22 PM EST (11/19)
Length of Visible Light 11h 24m
Length of Day
10h 33m
Last Quarter, 38% of the Moon is Illuminated
Nov 19
Last Quarter
Nov 25
New
Dec 2
First Quarter
Dec 10
Full
Dec 17
Last Quarter

Hourly Weather History & Observations

Time (EST) Temp. Dew Point Humidity Pressure Visibility Wind Dir Wind Speed Gust Speed Precip Events Conditions
12:15 AM 50.0 °F 50.0 °F 100% 30.29 in 10.0 mi Calm Calm - 0.07 in   Clear
12:35 AM 50.0 °F 50.0 °F 100% 30.28 in 7.0 mi Calm Calm - 0.07 in   Clear
12:55 AM 50.0 °F 50.0 °F 100% 30.28 in 2.5 mi Calm Calm - 0.07 in   Clear
1:15 AM 50.0 °F 50.0 °F 100% 30.27 in 4.0 mi Calm Calm - 0.07 in   Clear
1:35 AM 50.0 °F 50.0 °F 100% 30.27 in 7.0 mi Calm Calm - 0.07 in   Clear
1:55 AM 51.8 °F 51.8 °F 100% 30.26 in 7.0 mi Calm Calm - 0.07 in   Clear
2:15 AM 51.8 °F 51.8 °F 100% 30.26 in 9.0 mi Calm Calm - 0.07 in   Clear
2:35 AM 51.8 °F 51.8 °F 100% 30.26 in 9.0 mi Calm Calm - 0.07 in   Clear
3:15 AM 51.8 °F 51.8 °F 100% 30.26 in 7.0 mi Calm Calm - 0.07 in   Clear
3:35 AM 50.0 °F 50.0 °F 100% 30.26 in 8.0 mi Calm Calm - 0.07 in   Partly Cloudy
3:55 AM 50.0 °F 50.0 °F 100% 30.25 in 9.0 mi NNW 5.8 mph - 0.07 in   Mostly Cloudy
4:15 AM 50.0 °F 50.0 °F 100% 30.25 in 8.0 mi NNW 5.8 mph - 0.07 in   Mostly Cloudy
4:35 AM 50.0 °F 50.0 °F 100% 30.26 in 7.0 mi NNW 3.5 mph - 0.07 in   Overcast
4:55 AM 50.0 °F 50.0 °F 100% 30.27 in 6.0 mi NW 4.6 mph - 0.07 in   Overcast
5:15 AM 50.0 °F 50.0 °F 100% 30.26 in 7.0 mi North 4.6 mph - 0.07 in   Overcast
5:35 AM 50.0 °F 50.0 °F 100% 30.27 in 6.0 mi Calm Calm - 0.07 in   Overcast
5:55 AM 50.0 °F 50.0 °F 100% 30.27 in 9.0 mi Calm Calm - 0.07 in   Scattered Clouds
6:15 AM 50.0 °F 50.0 °F 100% 30.27 in 7.0 mi Calm Calm - 0.07 in   Clear
6:50 AM 50.0 °F 50.0 °F 100% 30.28 in 7.0 mi North 5.8 mph - N/A   Scattered Clouds
8:50 AM 55.4 °F 53.6 °F 94% 30.31 in 10.0 mi North 5.8 mph - N/A   Clear
10:50 AM 68.0 °F 59.0 °F 73% 30.31 in 10.0 mi NNE 4.6 mph - N/A   Scattered Clouds
11:50 AM 73.4 °F 62.6 °F 69% 30.29 in 10.0 mi NNE 4.6 mph - N/A   Overcast
12:50 PM 73.4 °F 62.6 °F 69% 30.27 in 10.0 mi East 5.8 mph - N/A   Overcast
1:50 PM 73.4 °F 64.4 °F 73% 30.26 in 6.0 mi South 8.1 mph - N/A   Mostly Cloudy
2:55 PM 68.0 °F 64.4 °F 88% 30.26 in 7.0 mi Variable 4.6 mph - N/A   Mostly Cloudy
3:50 PM 68.0 °F 64.4 °F 88% 30.26 in 7.0 mi SSE 8.1 mph - N/A   Clear
4:50 PM 68.0 °F 64.4 °F 88% 30.27 in 7.0 mi Calm Calm - N/A   Scattered Clouds
5:50 PM 66.2 °F 64.4 °F 94% 30.27 in 7.0 mi Calm Calm - N/A   Scattered Clouds
6:50 PM 66.2 °F 64.4 °F 94% 30.28 in 7.0 mi Calm Calm - N/A   Clear
7:50 PM 66.2 °F 64.4 °F 94% 30.27 in 7.0 mi Variable 4.6 mph - N/A   Scattered Clouds
8:55 PM 66.2 °F 64.4 °F 94% 30.28 in 10.0 mi Calm Calm - 0.07 in   Mostly Cloudy
9:15 PM 64.4 °F 64.4 °F 100% 30.28 in 10.0 mi Calm Calm - 0.07 in   Scattered Clouds
9:35 PM 64.4 °F 64.4 °F 100% 30.28 in 10.0 mi Calm Calm - 0.07 in   Scattered Clouds
9:55 PM 62.6 °F 62.6 °F 100% 30.28 in 10.0 mi Calm Calm - 0.07 in   Clear
10:15 PM 60.8 °F 60.8 °F 100% 30.28 in 2.5 mi Calm Calm - 0.07 in   Clear
10:35 PM 59.0 °F 59.0 °F 100% 30.28 in 6.0 mi Calm Calm - 0.07 in   Clear
10:55 PM 59.0 °F 59.0 °F 100% 30.28 in 0.2 mi Calm Calm - 0.07 in   Unknown
11:15 PM 59.0 °F 59.0 °F 100% 30.29 in 0.5 mi Calm Calm - 0.07 in   Unknown
11:35 PM 59.0 °F 59.0 °F 100% 30.28 in 6.0 mi Calm Calm - 0.07 in   Clear
11:55 PM 57.2 °F 57.2 °F 100% 30.27 in 0.8 mi Calm Calm - 0.07 in   Unknown